Home > Weather > Eskilstuna > Past weeks

Flag for Sweden Past Weather in Eskilstuna, Sweden — Yesterday and Last 2 Weeks

Now
72 °F

Sunny.


Feels Like: 76 °F
Forecast: 53 / 72 °F
Wind: 5 mph from Southeast

Location: Vasteras / Hasslo

Current Time: Jul 29, 2016 at 7:54:08 PM

Latest Report: Jul 29, 2016 at 7:20 PM


Visibility: 10 mi

Pressure: 29.74 "Hg

Humidity: 57%

Dew Point: 55 °F

Location of EskilstunaLocation

Past Weather in Eskilstuna — Graph

°F

Eskilstuna Temperature Yesterday

Maximum temperature yesterday: 75 °F (at 2:50 PM)
Minimum temperature yesterday: 54 °F (at 2:20 AM)
Average temperature yesterday: 66 °F

High & Low Weather Summary for the Past Weeks

 TemperatureHumidityPressure
High84 °F (Jul 24, 2:20 PM)100% (Jul 15, 1:50 AM)30.15 "Hg (Jul 15, 1:50 AM)
Low46 °F (Jul 19, 3:20 AM)30% (Jul 21, 2:50 PM)29.77 "Hg (Jul 15, 4:20 AM)
Average66 °F66%29.96 "Hg
* Reported Jul 14 6:20 PM — Jul 29 6:20 PM, Eskilstuna, Weather by CustomWeather, © 2016

Note: Actual official high and low records may vary slightly from our data, if they occured in-between our weather recording intervals... More about our weather records

Advertising

Eskilstuna Weather History for the Previous 24 Hours

Scroll right to see more
 ConditionsComfort  
Time TempWeatherWind HumidityBarometerVisibility
6:20 PM
Fri, Jul 29
73 °FPassing clouds.5 mph41%29.77 "HgN/A
5:50 PM73 °FSunny.3 mph41%29.77 "Hg10 mi
5:20 PM72 °FPassing clouds.6 mph47%29.77 "HgN/A
4:50 PM73 °FSunny.8 mph41%29.77 "Hg10 mi
4:20 PM73 °FSunny.7 mph41%29.77 "Hg10 mi
3:50 PM75 °FPassing clouds.7 mph39%29.77 "HgN/A
3:20 PM75 °FPassing clouds.6 mph39%29.80 "HgN/A
2:50 PM75 °FPassing clouds.7 mph39%29.80 "HgN/A
2:20 PM73 °FSunny.9 mph41%29.80 "Hg10 mi
1:50 PM73 °FPassing clouds.9 mph44%29.80 "HgN/A
1:20 PM73 °FPassing clouds.9 mph47%29.80 "HgN/A
12:50 PM72 °FPassing clouds.8 mph50%29.83 "HgN/A
12:20 PM72 °FPassing clouds.7 mph50%29.83 "HgN/A
11:50 AM70 °FPassing clouds.7 mph57%29.83 "HgN/A
11:20 AM68 °FPassing clouds.7 mph56%29.83 "HgN/A
10:50 AM68 °FPassing clouds.9 mph60%29.83 "HgN/A
10:20 AM66 °FPassing clouds.10 mph68%29.83 "HgN/A
9:50 AM64 °FPassing clouds.7 mph73%29.83 "HgN/A
9:20 AM64 °FPassing clouds.7 mph73%29.83 "HgN/A
8:50 AM64 °FPassing clouds.6 mph73%29.83 "HgN/A
8:20 AM63 °FPassing clouds.6 mph77%29.86 "HgN/A
7:50 AM63 °FPassing clouds.6 mph77%29.86 "HgN/A
7:20 AM63 °FPassing clouds.6 mph77%29.83 "HgN/A
6:50 AM61 °FSunny.5 mph77%29.83 "Hg10 mi
6:20 AM59 °FPassing clouds.5 mph82%29.83 "HgN/A
5:50 AM57 °FCool.5 mph82%29.83 "HgN/A
5:20 AM55 °FCool.5 mph82%29.86 "HgN/A
4:50 AM59 °FCool.7 mph82%29.86 "HgN/A
4:20 AM59 °FCool.7 mph82%29.83 "HgN/A
3:50 AM59 °FCool.6 mph82%29.86 "HgN/A
3:20 AM59 °FCool.6 mph82%29.86 "HgN/A
2:50 AM61 °FCool.7 mph77%29.86 "HgN/A
2:20 AM61 °FCool.7 mph72%29.83 "HgN/A
1:50 AM61 °FCool.6 mph72%29.86 "HgN/A
1:20 AM63 °FMild.7 mph68%29.86 "HgN/A
12:50 AM63 °FMild.8 mph68%29.83 "HgN/A
12:20 AM63 °FMild.6 mph68%29.86 "HgN/A
11:50 PM
Thu, Jul 28
63 °FMild.8 mph64%29.83 "HgN/A
11:20 PM64 °FMild.8 mph64%29.83 "HgN/A
10:50 PM64 °FMild.8 mph64%29.83 "HgN/A
10:20 PM66 °FMild.7 mph56%29.83 "HgN/A
9:50 PM66 °FMild.8 mph56%29.83 "HgN/A
9:20 PM68 °FMild.8 mph49%29.83 "HgN/A
8:50 PM68 °FMild.8 mph49%29.83 "HgN/A
8:20 PM70 °FMild.9 mph43%29.83 "HgN/A
7:50 PM72 °FMild.8 mph41%29.83 "HgN/A
7:20 PM72 °FMild.10 mph44%29.80 "HgN/A
Weather by CustomWeather, © 2016

See weather overviewHow to use our weather pages